Location: Feydey
(46.3431°N, 7.0106°E)
Time: 07:43:39
(UTC+00:00)

deb Atmosphere 2 - Pass Details

Date: 04 February 2022
Orbit: 828 x 839 km, 98.6° (Epoch: 21 May)

Event Time Altitude Azimuth Distance (km) Brightness Sun altitude
Rises 03:53:20 0° 25° (NNE) 3,398 ? -31.0°
Reaches altitude 10° 03:56:12 10° 40° (NE) 2,456 ? -30.5°
Maximum altitude 04:00:29 23° 92° (E) 1,702 ? -29.8°
Drops below altitude 10° 04:04:42 10° 144° (SE) 2,435 ? -29.0°
Sets 04:07:32 0° 158° (SSE) 3,361 ? -28.6°
